Belmar-Farmingdale, NJ

1:39 AM EDT on May 30, 2017 (GMT -0400)
Allaire

Weather History for KBLM - January, 2014

Change the Weather History Date:

Monday, January 6, 2014

  Actual Average Record
Temperature  
Mean Temperature 38 °F -  
Max Temperature 57 °F 39 °F 71 °F (2007)
Min Temperature 17 °F 27 °F 10 °F (1999)
Degree Days  
Heating Degree Days 27    
Moisture  
Dew Point 34 °F    
Average Humidity 72    
Maximum Humidity 94    
Minimum Humidity 39    
Precipitation  
Precipitation 0.27 in - - ()
Sea Level Pressure  
Sea Level Pressure 29.59 in    
Wind  
Wind Speed 14 mph (WSW)    
Max Wind Speed 24 mph    
Max Gust Speed 38 mph    
Visibility 8 miles    
Events      
Averages and records for this station are not official NWS values.
T = Trace of Precipitation, MM = Missing Value Source: NWS Daily Summary

Daily Weather History Graph

Daily Weather History Graph

Search for Another Location

Airport or City:

Trip Planner

Search our weather history database for the weather conditions in past years. The results will help you decide how hot, cold, wet, or windy it might be!

Date:

Astronomy

Jan. 06, 2014 Rise Set
Actual Time 7:19 AM EST 4:45 PM EST
Civil Twilight 6:48 AM EST 5:16 PM EST
Nautical Twilight 6:14 AM EST 5:50 PM EST
Astronomical Twilight 5:42 AM EST 6:22 PM EST
Moon 10:32 AM EST (1/6) 11:17 PM EST (1/6)
Length of Visible Light 10h 27m
Length of Day
9h 26m
Waxing Crescent, 34% of the Moon is Illuminated
Jan 6
Waxing Crescent
Jan 7
First Quarter
Jan 15
Full
Jan 24
Last Quarter
Jan 30
New

Hourly Weather History & Observations

Time (EST) Temp. Windchill Dew Point Humidity Pressure Visibility Wind Dir Wind Speed Gust Speed Precip Events Conditions
12:15 AM 51.8 °F - 50.0 °F 94% 29.75 in 7.0 mi SSE 13.8 mph 24.2 mph 0.01 in   Overcast
12:35 AM 53.6 °F - 50.0 °F 88% 29.73 in 1.5 mi South 13.8 mph 20.7 mph 0.01 in   Overcast
12:55 AM 51.8 °F - 48.2 °F 88% 29.71 in 4.0 mi South 15.0 mph 23.0 mph 0.03 in   Overcast
1:15 AM 51.8 °F - 48.2 °F 88% 29.70 in 4.0 mi South 10.4 mph 17.3 mph 0.04 in   Overcast
1:35 AM 53.6 °F - 50.0 °F 88% 29.70 in 5.0 mi South 12.7 mph 18.4 mph 0.04 in   Overcast
1:55 AM 53.6 °F - 51.8 °F 94% 29.69 in 6.0 mi South 10.4 mph 18.4 mph 0.04 in   Overcast
2:15 AM 55.4 °F - 53.6 °F 94% 29.68 in 3.0 mi SSW 15.0 mph 23.0 mph N/A   Overcast
2:35 AM 55.4 °F - 53.6 °F 94% 29.68 in 2.5 mi SSW 11.5 mph 19.6 mph N/A   Overcast
2:55 AM 55.4 °F - 53.6 °F 94% 29.66 in 5.0 mi South 12.7 mph - N/A   Overcast
3:15 AM 55.4 °F - 53.6 °F 94% 29.64 in 8.0 mi South 12.7 mph 18.4 mph N/A   Overcast
3:35 AM 55.4 °F - 53.6 °F 94% 29.62 in 4.0 mi South 17.3 mph 21.9 mph N/A   Overcast
3:55 AM 57.2 °F - 53.6 °F 88% 29.59 in 2.5 mi South 16.1 mph 23.0 mph N/A   Overcast
4:15 AM 57.2 °F - 55.4 °F 94% 29.57 in 3.0 mi South 16.1 mph 33.4 mph N/A   Overcast
4:35 AM 57.2 °F - 55.4 °F 94% 29.56 in 10.0 mi South 17.3 mph 26.5 mph N/A   Overcast
4:55 AM 57.2 °F - 55.4 °F 94% 29.56 in 8.0 mi South 12.7 mph 24.2 mph N/A   Overcast
5:15 AM 55.4 °F - 53.6 °F 94% 29.55 in 0.8 mi South 10.4 mph 17.3 mph N/A   Overcast
5:35 AM 55.4 °F - 51.8 °F 88% 29.54 in 0.5 mi South 11.5 mph 19.6 mph N/A   Overcast
5:55 AM 53.6 °F - 51.8 °F 94% 29.53 in 0.5 mi South 11.5 mph 19.6 mph N/A   Overcast
6:15 AM 53.6 °F - 51.8 °F 94% 29.51 in 0.8 mi South 11.5 mph 17.3 mph N/A   Overcast
6:35 AM 55.4 °F - 51.8 °F 88% 29.50 in 0.8 mi South 11.5 mph 18.4 mph N/A   Overcast
6:55 AM 55.4 °F - 53.6 °F 94% 29.48 in 0.8 mi South 11.5 mph 19.6 mph N/A   Overcast
7:15 AM 55.4 °F - 53.6 °F 94% 29.48 in 3.0 mi South 15.0 mph 20.7 mph N/A   Overcast
7:35 AM 57.2 °F - 53.6 °F 88% 29.47 in 10.0 mi South 13.8 mph 20.7 mph N/A   Overcast
7:55 AM 57.2 °F - 55.4 °F 94% 29.46 in 9.0 mi SSW 12.7 mph 24.2 mph 0.02 in   Overcast
8:15 AM 57.2 °F - 53.6 °F 88% 29.46 in 9.0 mi SSW 12.7 mph 18.4 mph 0.02 in   Overcast
8:35 AM 57.2 °F - 53.6 °F 88% 29.45 in 10.0 mi South 12.7 mph 21.9 mph 0.03 in   Overcast
8:55 AM 57.2 °F - 53.6 °F 88% 29.44 in 10.0 mi South 17.3 mph 26.5 mph 0.03 in   Overcast
9:15 AM 57.2 °F - 53.6 °F 88% 29.49 in 6.0 mi West 23.0 mph 35.7 mph 0.03 in   Overcast
9:35 AM 48.2 °F - 44.6 °F 87% 29.53 in 9.0 mi WNW 21.9 mph 35.7 mph 0.05 in   Overcast
9:55 AM 46.4 °F 41.1 °F 42.8 °F 87% 29.52 in 7.0 mi WNW 11.5 mph - 0.10 in   Mostly Cloudy
10:15 AM 44.6 °F 37.8 °F 39.2 °F 81% 29.52 in 10.0 mi WNW 15.0 mph 25.3 mph 0.02 in   Mostly Cloudy
10:35 AM 44.6 °F 38.8 °F 39.2 °F 81% 29.50 in 10.0 mi WNW 11.5 mph 18.4 mph 0.03 in   Mostly Cloudy
10:55 AM 46.4 °F 42.4 °F 41.0 °F 81% 29.50 in 10.0 mi West 8.1 mph - 0.03 in   Overcast
11:15 AM 46.4 °F 41.1 °F 39.2 °F 76% 29.49 in 10.0 mi West 11.5 mph - N/A   Overcast
11:35 AM 46.4 °F 41.9 °F 39.2 °F 76% 29.49 in 10.0 mi West 9.2 mph - N/A   Overcast
11:55 AM 44.6 °F 36.9 °F 39.2 °F 81% 29.50 in 8.0 mi West 18.4 mph 24.2 mph 0.01 in   Mostly Cloudy
12:15 PM 44.6 °F 38.1 °F 39.2 °F 81% 29.49 in 10.0 mi West 13.8 mph - N/A   Overcast
12:35 PM 42.8 °F 35.4 °F 35.6 °F 76% 29.49 in 10.0 mi WNW 15.0 mph 25.3 mph N/A   Overcast
12:55 PM 41.0 °F 31.6 °F 35.6 °F 81% 29.52 in 10.0 mi WNW 20.7 mph 26.5 mph 0.01 in   Overcast
1:15 PM 37.4 °F 27.2 °F 32.0 °F 81% 29.53 in 10.0 mi WNW 19.6 mph 28.8 mph N/A   Overcast
1:35 PM 37.4 °F 28.5 °F 32.0 °F 81% 29.52 in 10.0 mi West 15.0 mph - N/A   Overcast
1:55 PM 37.4 °F 28.9 °F 30.2 °F 75% 29.51 in 10.0 mi West 13.8 mph 25.3 mph N/A   Mostly Cloudy
2:15 PM 37.4 °F 28.5 °F 28.4 °F 70% 29.51 in 10.0 mi West 15.0 mph 26.5 mph N/A   Overcast
2:35 PM 37.4 °F 29.8 °F 28.4 °F 70% 29.52 in 10.0 mi West 11.5 mph 17.3 mph N/A   Overcast
2:55 PM 37.4 °F 28.2 °F 28.4 °F 70% 29.52 in 10.0 mi West 16.1 mph 25.3 mph N/A   Overcast
3:15 PM 37.4 °F 28.5 °F 24.8 °F 60% 29.52 in 10.0 mi WNW 15.0 mph - N/A   Overcast
3:35 PM 37.4 °F 28.9 °F 24.8 °F 60% 29.53 in 10.0 mi West 13.8 mph 24.2 mph N/A   Overcast
3:55 PM 37.4 °F 29.3 °F 23.0 °F 56% 29.54 in 10.0 mi West 12.7 mph 20.7 mph N/A   Overcast
4:15 PM 37.4 °F 28.9 °F 21.2 °F 52% 29.54 in 10.0 mi WNW 13.8 mph 29.9 mph N/A   Mostly Cloudy
4:35 PM 37.4 °F 27.8 °F 19.4 °F 48% 29.55 in 10.0 mi WNW 17.3 mph 29.9 mph N/A   Partly Cloudy
4:55 PM 35.6 °F 26.2 °F 19.4 °F 52% 29.56 in 10.0 mi West 15.0 mph 24.2 mph N/A   Clear
5:15 PM 35.6 °F 27.1 °F 19.4 °F 52% 29.57 in 10.0 mi West 12.7 mph 17.3 mph N/A   Clear
5:35 PM 35.6 °F 27.5 °F 17.6 °F 48% 29.58 in 10.0 mi West 11.5 mph 18.4 mph N/A   Scattered Clouds
5:55 PM 35.6 °F 27.1 °F 17.6 °F 48% 29.59 in 10.0 mi West 12.7 mph 21.9 mph N/A   Partly Cloudy
6:15 PM 33.8 °F 24.3 °F 17.6 °F 52% 29.61 in 10.0 mi West 13.8 mph 23.0 mph N/A   Partly Cloudy
6:35 PM 33.8 °F 25.8 °F 15.8 °F 48% 29.62 in 10.0 mi West 10.4 mph 20.7 mph N/A   Partly Cloudy
6:55 PM 33.8 °F 23.5 °F 15.8 °F 48% 29.64 in 10.0 mi West 16.1 mph 21.9 mph N/A   Mostly Cloudy
7:15 PM 33.8 °F 23.2 °F 15.8 °F 48% 29.65 in 10.0 mi West 17.3 mph 23.0 mph N/A   Overcast
7:35 PM 32.0 °F 19.8 °F 15.8 °F 51% 29.66 in 10.0 mi West 20.7 mph 29.9 mph N/A   Mostly Cloudy
7:55 PM 32.0 °F 20.8 °F 14.0 °F 48% 29.66 in 10.0 mi West 17.3 mph 25.3 mph N/A   Scattered Clouds
8:15 PM 30.2 °F 18.9 °F 10.4 °F 44% 29.67 in 10.0 mi West 16.1 mph 28.8 mph N/A   Clear
8:35 PM 30.2 °F 17.8 °F 8.6 °F 40% 29.68 in 10.0 mi WNW 19.6 mph 38.0 mph N/A   Clear
8:55 PM 30.2 °F 18.1 °F 8.6 °F 40% 29.69 in 10.0 mi West 18.4 mph 26.5 mph N/A   Clear
9:15 PM 30.2 °F 18.1 °F 10.4 °F 44% 29.69 in 10.0 mi West 18.4 mph 26.5 mph N/A   Clear
9:35 PM 28.4 °F 16.2 °F 10.4 °F 47% 29.70 in 10.0 mi West 17.3 mph 24.2 mph N/A   Partly Cloudy
9:55 PM 28.4 °F 14.4 °F 10.4 °F 47% 29.71 in 10.0 mi West 23.0 mph 33.4 mph N/A   Partly Cloudy
10:15 PM 26.6 °F 12.0 °F 6.8 °F 43% 29.71 in 10.0 mi West 23.0 mph 38.0 mph N/A   Clear
10:35 PM 24.8 °F 9.3 °F 6.8 °F 46% 29.73 in 10.0 mi WNW 24.2 mph 32.2 mph N/A   Clear
10:55 PM 23.0 °F 7.6 °F 1.4 °F 39% 29.75 in 10.0 mi West 21.9 mph 31.1 mph N/A   Clear
11:15 PM 21.2 °F 5.2 °F 1.4 °F 42% 29.75 in 10.0 mi West 21.9 mph 32.2 mph N/A   Clear
11:35 PM 19.4 °F 4.5 °F 1.4 °F 46% 29.78 in 10.0 mi West 17.3 mph 32.2 mph N/A   Clear
11:55 PM 17.6 °F 0.1 °F -2.2 °F 42% 29.79 in 10.0 mi West 23.0 mph 35.7 mph N/A   Clear